Land O' Lakes, WI

2:33 PM CDT on October 18, 2017 (GMT -0500)
Kings Land O'Lakes

Weather History for KLNL - February, 2014

Change the Weather History Date:

Wednesday, February 19, 2014

  Actual Average (KEGV) Record (KEGV)
Temperature  
Mean Temperature 25 °F -  
Max Temperature 41 °F 28 °F 54 °F (2017)
Min Temperature 9 °F 11 °F -26 °F (2015)
Degree Days  
Heating Degree Days 40    
Moisture  
Dew Point 17 °F    
Average Humidity 65    
Maximum Humidity 96    
Minimum Humidity 32    
Precipitation  
Precipitation 0.00 in - - ()
Sea Level Pressure  
Sea Level Pressure 29.71 in    
Wind  
Wind Speed 5 mph (West)    
Max Wind Speed 13 mph    
Max Gust Speed 20 mph    
Visibility 10 miles    
Events      
Averages and records for this station are not official NWS values.
T = Trace of Precipitation, MM = Missing Value Source: NWS Daily Summary

Daily Weather History Graph

Daily Weather History Graph

Search for Another Location

Airport or City:

Trip Planner

Search our weather history database for the weather conditions in past years. The results will help you decide how hot, cold, wet, or windy it might be!

Date:

Astronomy

Feb. 19, 2014 Rise Set
Actual Time 6:53 AM CST 5:28 PM CST
Civil Twilight 6:22 AM CST 5:59 PM CST
Nautical Twilight 5:47 AM CST 6:34 PM CST
Astronomical Twilight 5:13 AM CST 7:09 PM CST
Moon 10:40 PM CST (2/19) 8:42 AM CST (2/19)
Length of Visible Light 11h 36m
Length of Day
10h 35m
Waning Gibbous, 79% of the Moon is Illuminated
Feb 19
Waning Gibbous
Feb 22
Last Quarter
Mar 1
New
Mar 8
First Quarter
Mar 16
Full

Hourly Weather History & Observations

Time (CST) Temp. Windchill Dew Point Humidity Pressure Visibility Wind Dir Wind Speed Gust Speed Precip Events Conditions
12:15 AM 23.9 °F 16.8 °F 22.8 °F 96% 29.59 in 10.0 mi West 5.8 mph - N/A   Clear
12:35 AM 25.2 °F 19.5 °F 23.2 °F 92% 29.59 in 10.0 mi WNW 4.6 mph - N/A   Clear
12:55 AM 24.1 °F 19.7 °F 22.1 °F 92% 29.58 in 10.0 mi West 3.5 mph - N/A   Clear
1:15 AM 19.4 °F 12.8 °F 17.2 °F 91% 29.59 in 10.0 mi West 4.6 mph - N/A   Clear
1:35 AM 12.6 °F 6.5 °F 10.2 °F 90% 29.59 in 7.0 mi West 3.5 mph - N/A   Clear
1:55 AM 10.6 °F 2.5 °F 8.4 °F 91% 29.59 in 7.0 mi West 4.6 mph - N/A   Clear
2:15 AM 10.9 °F - 8.6 °F 90% 29.59 in 7.0 mi Calm Calm - N/A   Clear
2:35 AM 9.7 °F 3.2 °F 7.3 °F 90% 29.60 in 7.0 mi West 3.5 mph - N/A   Clear
2:55 AM 12.2 °F 4.3 °F 11.1 °F 95% 29.60 in 7.0 mi West 4.6 mph - N/A   Clear
3:15 AM 21.7 °F 15.5 °F 20.3 °F 94% 29.60 in 10.0 mi West 4.6 mph - N/A   Clear
3:35 AM 21.9 °F 13.4 °F 20.1 °F 93% 29.61 in 10.0 mi West 6.9 mph - N/A   Clear
3:55 AM 23.0 °F 17.0 °F 20.5 °F 90% 29.61 in 10.0 mi WNW 4.6 mph - N/A   Clear
4:15 AM 22.5 °F 17.8 °F 19.4 °F 88% 29.61 in 10.0 mi West 3.5 mph - N/A   Clear
4:35 AM 17.8 °F 12.5 °F 14.5 °F 87% 29.61 in 10.0 mi West 3.5 mph - N/A   Clear
4:55 AM 20.5 °F 14.0 °F 18.1 °F 91% 29.62 in 10.0 mi West 4.6 mph - N/A   Clear
5:15 AM 20.3 °F 13.8 °F 17.6 °F 89% 29.62 in 10.0 mi West 4.6 mph - N/A   Clear
5:35 AM 20.1 °F 12.3 °F 17.2 °F 89% 29.63 in 10.0 mi West 5.8 mph - N/A   Clear
5:55 AM 20.1 °F 12.3 °F 17.4 °F 89% 29.64 in 10.0 mi West 5.8 mph - N/A   Clear
6:15 AM 20.1 °F 13.6 °F 17.4 °F 89% 29.64 in 10.0 mi WNW 4.6 mph - N/A   Clear
6:35 AM 19.2 °F 12.5 °F 16.7 °F 90% 29.65 in 10.0 mi West 4.6 mph - N/A   Clear
6:55 AM 19.2 °F 11.3 °F 16.7 °F 90% 29.65 in 10.0 mi West 5.8 mph - N/A   Clear
7:15 AM 20.3 °F 13.8 °F 17.6 °F 89% 29.65 in 10.0 mi West 4.6 mph - N/A   Clear
7:35 AM 21.0 °F 16.2 °F 18.1 °F 89% 29.65 in 10.0 mi West 3.5 mph - N/A   Clear
7:55 AM 22.1 °F 15.9 °F 18.7 °F 87% 29.67 in 10.0 mi West 4.6 mph - N/A   Clear
8:15 AM 23.0 °F 14.7 °F 19.4 °F 86% 29.67 in 10.0 mi West 6.9 mph - N/A   Clear
8:35 AM 24.6 °F 18.8 °F 20.1 °F 83% 29.68 in 10.0 mi West 4.6 mph - N/A   Clear
8:55 AM 26.1 °F 18.4 °F 20.3 °F 79% 29.69 in 10.0 mi West 6.9 mph - N/A   Clear
9:15 AM 27.3 °F 19.9 °F 20.3 °F 75% 29.69 in 10.0 mi West 6.9 mph - N/A   Clear
9:35 AM 29.1 °F 21.3 °F 20.3 °F 70% 29.70 in 10.0 mi WNW 8.1 mph - N/A   Clear
9:55 AM 31.3 °F 23.9 °F 20.1 °F 63% 29.70 in 10.0 mi West 8.1 mph - N/A   Clear
10:15 AM 32.0 °F 23.0 °F 20.1 °F 62% 29.70 in 10.0 mi West 11.5 mph - N/A   Clear
10:35 AM 33.8 °F 27.7 °F 20.1 °F 57% 29.71 in 10.0 mi West 6.9 mph - N/A   Clear
10:55 AM 35.2 °F 27.1 °F 19.6 °F 53% 29.71 in 10.0 mi West 11.5 mph 17.3 mph N/A   Clear
11:15 AM 36.5 °F 28.7 °F 18.9 °F 49% 29.72 in 10.0 mi West 11.5 mph 16.1 mph N/A   Clear
11:35 AM 37.2 °F 30.6 °F 18.5 °F 47% 29.72 in 10.0 mi West 9.2 mph 17.3 mph N/A   Clear
11:55 AM 38.3 °F 30.9 °F 17.8 °F 44% 29.72 in 10.0 mi West 11.5 mph 18.4 mph N/A   Clear
12:15 PM 38.7 °F 32.4 °F 17.2 °F 42% 29.71 in 10.0 mi West 9.2 mph 17.3 mph N/A   Clear
12:35 PM 39.2 °F 34.2 °F 16.7 °F 40% 29.71 in 10.0 mi West 6.9 mph 16.1 mph N/A   Clear
12:55 PM 39.6 °F 32.5 °F 16.2 °F 39% 29.70 in 10.0 mi West 11.5 mph 19.6 mph N/A   Clear
1:15 PM 40.5 °F 35.1 °F 15.6 °F 37% 29.70 in 10.0 mi West 8.1 mph - N/A   Clear
1:35 PM 41.2 °F 36.0 °F 15.4 °F 35% 29.70 in 10.0 mi SW 8.1 mph - N/A   Clear
1:55 PM 41.2 °F 35.5 °F 14.0 °F 33% 29.71 in 10.0 mi WSW 9.2 mph 17.3 mph N/A   Clear
2:15 PM 41.5 °F 34.6 °F 13.8 °F 32% 29.71 in 10.0 mi West 12.7 mph 18.4 mph N/A   Clear
2:30 PM 41.7 °F 34.8 °F 14.0 °F 32% 29.72 in 10.0 mi SW 12.7 mph 17.3 mph N/A   Clear
2:50 PM 41.9 °F 36.3 °F 14.0 °F 32% 29.72 in 10.0 mi WSW 9.2 mph - N/A   Clear
3:15 PM 41.9 °F 36.9 °F 13.6 °F 32% 29.73 in 10.0 mi SW 8.1 mph - N/A   Clear
3:35 PM 41.0 °F 37.1 °F 13.3 °F 32% 29.73 in 10.0 mi WSW 5.8 mph - N/A   Clear
3:55 PM 41.0 °F 35.8 °F 12.7 °F 32% 29.74 in 10.0 mi WSW 8.1 mph - N/A   Clear
4:15 PM 41.0 °F 36.4 °F 13.5 °F 33% 29.74 in 10.0 mi WSW 6.9 mph - N/A   Clear
4:35 PM 40.3 °F 35.5 °F 12.7 °F 33% 29.75 in 10.0 mi WSW 6.9 mph - N/A   Clear
4:36 PM 39.2 °F 35.9 °F 12.2 °F 33% 29.75 in 10.0 mi WSW 4.6 mph - N/A   Clear
4:55 PM 38.8 °F 36.5 °F 12.7 °F 34% 29.75 in 10.0 mi WSW 3.5 mph - N/A   Clear
5:15 PM 37.2 °F 34.7 °F 13.5 °F 38% 29.76 in 10.0 mi WSW 3.5 mph - N/A   Clear
5:35 PM 36.3 °F 33.7 °F 13.5 °F 39% 29.77 in 10.0 mi WSW 3.5 mph - N/A   Clear
5:55 PM 35.4 °F - 14.0 °F 41% 29.77 in 10.0 mi Calm Calm - N/A   Clear
6:15 PM 33.8 °F - 14.4 °F 45% 29.78 in 10.0 mi Calm Calm - N/A   Clear
6:35 PM 32.2 °F - 15.6 °F 51% 29.79 in 10.0 mi Calm Calm - N/A   Scattered Clouds
6:55 PM 32.4 °F 29.1 °F 15.1 °F 49% 29.79 in 10.0 mi SSW 3.5 mph - N/A   Mostly Cloudy
7:15 PM 31.8 °F - 15.6 °F 51% 29.79 in 10.0 mi Calm Calm - N/A   Mostly Cloudy
7:35 PM 30.6 °F - 15.8 °F 54% 29.79 in 10.0 mi Calm Calm - N/A   Clear
7:55 PM 31.1 °F - 14.9 °F 51% 29.79 in 10.0 mi Calm Calm - N/A   Clear
8:15 PM 31.1 °F - 14.9 °F 51% 29.79 in 10.0 mi Calm Calm - N/A   Clear
8:35 PM 30.7 °F - 15.3 °F 53% 29.77 in 10.0 mi Calm Calm - N/A   Clear
8:55 PM 28.6 °F - 16.0 °F 59% 29.78 in 10.0 mi Calm Calm - N/A   Clear
9:15 PM 28.9 °F 25.2 °F 17.1 °F 61% 29.79 in 10.0 mi South 3.5 mph - N/A   Scattered Clouds
9:35 PM 30.2 °F - 18.1 °F 61% 29.79 in 10.0 mi Calm Calm - N/A   Mostly Cloudy
9:55 PM 27.9 °F - 17.8 °F 66% 29.80 in 10.0 mi Calm Calm - N/A   Overcast
10:10 PM 26.6 °F - 18.1 °F 70% 29.80 in 10.0 mi Calm Calm - N/A   Mostly Cloudy
10:33 PM 26.6 °F - 17.6 °F 69% 29.80 in 10.0 mi Calm Calm - N/A   Scattered Clouds
10:35 PM 25.9 °F - 18.0 °F 72% 29.80 in 10.0 mi Calm Calm - N/A   Scattered Clouds
10:55 PM 25.0 °F - 18.5 °F 76% 29.80 in 10.0 mi Calm Calm - N/A   Mostly Cloudy
10:56 PM 24.8 °F - 17.6 °F 74% 29.80 in 10.0 mi Calm Calm - N/A   Mostly Cloudy
11:15 PM 24.8 °F - 18.9 °F 78% 29.80 in 10.0 mi Calm Calm - N/A   Overcast
11:35 PM 24.4 °F - 19.4 °F 81% 29.79 in 10.0 mi Calm Calm - N/A   Overcast
11:38 PM 24.8 °F - 19.4 °F 80% 29.79 in 10.0 mi Calm Calm - N/A   Overcast
11:55 PM 26.1 °F - 19.9 °F 78% 29.80 in 10.0 mi Calm Calm - N/A   Overcast